N678MM KSJT-KGJT

Flight info

Callsign N678MM
Flight time N/A
Altitude 40000
Route SJT DIVEY VANSS TAMEY HELPS HAQHY
Aircraft B737/M-SDE2E3FGHIRWXY/LB1

Departure

Time N/A
Airport San Angelo Regional Mathis Field (KSJT)

Arrival

Time 2026-04-24 23:25
Airport Grand Junction Regional Airport (KGJT)
Time Latitude Longitude Altitude Speed Heading
2026-04-24 22:41 35.64091 -105.13613 39943 ft 397 kts 313°
2026-04-24 22:41 35.66232 -105.15760 39946 ft 397 kts 313°
2026-04-24 22:42 35.70487 -105.20030 39940 ft 397 kts 313°
2026-04-24 22:42 35.74764 -105.24328 39942 ft 396 kts 313°
2026-04-24 22:43 35.79033 -105.28625 39940 ft 397 kts 313°
2026-04-24 22:43 35.83309 -105.32932 39944 ft 397 kts 313°
2026-04-24 22:44 35.87574 -105.37240 39951 ft 396 kts 313°
2026-04-24 22:44 35.91842 -105.41554 39954 ft 397 kts 313°
2026-04-24 22:45 35.96114 -105.45876 39956 ft 397 kts 313°
2026-04-24 22:45 36.00503 -105.49988 39964 ft 401 kts 318°
2026-04-24 22:46 36.05193 -105.53771 39969 ft 403 kts 319°
2026-04-24 22:46 36.09915 -105.57547 39985 ft 404 kts 319°
2026-04-24 22:47 36.14632 -105.61356 39980 ft 405 kts 319°
2026-04-24 22:47 36.19349 -105.65191 39990 ft 406 kts 319°
2026-04-24 22:48 36.24051 -105.69026 39979 ft 407 kts 319°
2026-04-24 22:48 36.28779 -105.72892 39987 ft 407 kts 319°
2026-04-24 22:49 36.33501 -105.76755 39983 ft 406 kts 319°
2026-04-24 22:49 36.38212 -105.80618 39963 ft 405 kts 319°
2026-04-24 22:50 36.42917 -105.84480 39952 ft 405 kts 319°
2026-04-24 22:50 36.47581 -105.88315 39979 ft 404 kts 319°
2026-04-24 22:51 36.52264 -105.92169 39981 ft 403 kts 318°
2026-04-24 22:51 36.56943 -105.96030 39972 ft 403 kts 318°
2026-04-24 22:52 36.61609 -105.99883 39963 ft 402 kts 319°
2026-04-24 22:52 36.66269 -106.03737 39979 ft 402 kts 318°
2026-04-24 22:53 36.70931 -106.07600 39987 ft 401 kts 318°
2026-04-24 22:53 36.75590 -106.11464 39993 ft 402 kts 318°
2026-04-24 22:54 36.80222 -106.15313 39996 ft 402 kts 318°
2026-04-24 22:54 36.84893 -106.19200 39992 ft 404 kts 318°
2026-04-24 22:55 36.89572 -106.23099 39992 ft 405 kts 318°
2026-04-24 22:55 36.94263 -106.27011 39990 ft 406 kts 318°
2026-04-24 22:56 36.98961 -106.30939 39998 ft 406 kts 318°
2026-04-24 22:56 37.03631 -106.34849 39996 ft 407 kts 318°
2026-04-24 22:57 37.08336 -106.38792 40020 ft 407 kts 318°
2026-04-24 22:57 37.13040 -106.42741 40037 ft 406 kts 318°
2026-04-24 22:58 37.17741 -106.46693 40040 ft 406 kts 318°
2026-04-24 22:58 37.22440 -106.50651 40051 ft 407 kts 318°
2026-04-24 22:59 37.27113 -106.54593 40062 ft 407 kts 318°
2026-04-24 23:00 37.34160 -106.60549 40061 ft 407 kts 318°
2026-04-24 23:00 37.38856 -106.64525 40091 ft 406 kts 318°
2026-04-24 23:01 37.43544 -106.68501 40104 ft 407 kts 318°
2026-04-24 23:01 37.48202 -106.72458 40110 ft 407 kts 318°
2026-04-24 23:02 37.52897 -106.76454 40129 ft 407 kts 318°
2026-04-24 23:02 37.57596 -106.80460 40112 ft 407 kts 318°
2026-04-24 23:03 37.62214 -106.84548 40071 ft 403 kts 314°
2026-04-24 23:03 37.66588 -106.88968 40020 ft 403 kts 313°
2026-04-24 23:04 37.70934 -106.93438 40016 ft 402 kts 314°
2026-04-24 23:04 37.75259 -106.97874 39996 ft 403 kts 314°
2026-04-24 23:05 37.79624 -107.02338 39980 ft 403 kts 314°
2026-04-24 23:05 37.83976 -107.06785 39981 ft 401 kts 314°
2026-04-24 23:06 37.88313 -107.11225 39972 ft 401 kts 314°
2026-04-24 23:06 37.92646 -107.15670 39988 ft 401 kts 314°
2026-04-24 23:07 37.96987 -107.20127 39968 ft 401 kts 314°
2026-04-24 23:07 38.01319 -107.24583 39978 ft 401 kts 314°
2026-04-24 23:08 38.05648 -107.29041 39828 ft 397 kts 314°
2026-04-24 23:08 38.07752 -107.31206 39296 ft 393 kts 314°
2026-04-24 23:08 38.09878 -107.33400 38578 ft 394 kts 314°
2026-04-24 23:08 38.12002 -107.35594 37825 ft 394 kts 313°
2026-04-24 23:09 38.14139 -107.37800 37066 ft 396 kts 313°
2026-04-24 23:09 38.16273 -107.40012 36295 ft 396 kts 313°
2026-04-24 23:09 38.18412 -107.42230 35453 ft 397 kts 313°
2026-04-24 23:09 38.20559 -107.44468 34433 ft 402 kts 313°
2026-04-24 23:10 38.22736 -107.46733 33362 ft 407 kts 313°
2026-04-24 23:10 38.24950 -107.49034 32145 ft 414 kts 314°
2026-04-24 23:10 38.27191 -107.51366 31021 ft 417 kts 314°
2026-04-24 23:10 38.29434 -107.53691 30280 ft 413 kts 314°
2026-04-24 23:11 38.31642 -107.55975 29652 ft 405 kts 314°
2026-04-24 23:11 38.33792 -107.58205 28873 ft 400 kts 315°
2026-04-24 23:11 38.35943 -107.60441 27994 ft 398 kts 315°
2026-04-24 23:11 38.38085 -107.62674 27128 ft 395 kts 315°
2026-04-24 23:12 38.40213 -107.64897 26258 ft 394 kts 316°
2026-04-24 23:12 38.42322 -107.67104 25399 ft 392 kts 316°
2026-04-24 23:12 38.44426 -107.69307 24549 ft 390 kts 317°
2026-04-24 23:12 38.46517 -107.71496 23766 ft 387 kts 317°
2026-04-24 23:13 38.48594 -107.73673 22978 ft 385 kts 317°
2026-04-24 23:13 38.50657 -107.75835 22202 ft 382 kts 317°
2026-04-24 23:13 38.52708 -107.77987 21497 ft 379 kts 317°
2026-04-24 23:13 38.54719 -107.80095 21206 ft 380 kts 317°
2026-04-24 23:14 38.56770 -107.82251 21093 ft 382 kts 317°
2026-04-24 23:14 38.58813 -107.84400 20954 ft 378 kts 317°
2026-04-24 23:14 38.60813 -107.86500 20873 ft 365 kts 317°
2026-04-24 23:14 38.62730 -107.88514 20851 ft 348 kts 317°
2026-04-24 23:15 38.64533 -107.90500 20851 ft 337 kts 315°
2026-04-24 23:15 38.66271 -107.92551 20860 ft 340 kts 314°
2026-04-24 23:15 38.67972 -107.94594 20843 ft 330 kts 314°
2026-04-24 23:15 38.69612 -107.96564 20826 ft 315 kts 313°
2026-04-24 23:16 38.71169 -107.98431 20822 ft 298 kts 313°
2026-04-24 23:16 38.72643 -108.00196 20810 ft 283 kts 313°
2026-04-24 23:16 38.74045 -108.01870 20779 ft 269 kts 312°
2026-04-24 23:16 38.75355 -108.03446 20744 ft 253 kts 313°
2026-04-24 23:17 38.76618 -108.04956 20545 ft 249 kts 313°
2026-04-24 23:17 38.77914 -108.06508 19732 ft 261 kts 313°
2026-04-24 23:17 38.79291 -108.08160 18643 ft 281 kts 313°
2026-04-24 23:17 38.80764 -108.09923 17544 ft 296 kts 313°
2026-04-24 23:18 38.82296 -108.11751 16552 ft 305 kts 313°
2026-04-24 23:18 38.83859 -108.13616 15747 ft 306 kts 313°
2026-04-24 23:18 38.84891 -108.14846 15251 ft 305 kts 313°
2026-04-24 23:18 38.86437 -108.16692 14566 ft 302 kts 313°
2026-04-24 23:19 38.88463 -108.19113 13687 ft 297 kts 313°
2026-04-24 23:19 38.89483 -108.20334 13217 ft 296 kts 313°
2026-04-24 23:19 38.90989 -108.22141 12507 ft 296 kts 313°
2026-04-24 23:19 38.92479 -108.23933 11873 ft 292 kts 313°
2026-04-24 23:20 38.93939 -108.25683 11170 ft 290 kts 312°
2026-04-24 23:20 38.95414 -108.27454 10443 ft 289 kts 313°
2026-04-24 23:20 38.96882 -108.29211 9728 ft 288 kts 313°
2026-04-24 23:20 38.98342 -108.30964 9049 ft 286 kts 314°
2026-04-24 23:21 38.99738 -108.32717 8553 ft 278 kts 309°
2026-04-24 23:21 39.00959 -108.34580 8179 ft 268 kts 306°
2026-04-24 23:21 39.02131 -108.36405 7831 ft 262 kts 306°
2026-04-24 23:21 39.03270 -108.38184 7577 ft 251 kts 307°
2026-04-24 23:22 39.04357 -108.39868 7321 ft 236 kts 307°
2026-04-24 23:22 39.05447 -108.41331 7283 ft 215 kts 311°
2026-04-24 23:22 39.06466 -108.42586 7254 ft 196 kts 311°
2026-04-24 23:22 39.07416 -108.43786 6989 ft 181 kts 309°
2026-04-24 23:23 39.08259 -108.44957 6606 ft 174 kts 307°
2026-04-24 23:23 39.09025 -108.46108 6235 ft 171 kts 302°
2026-04-24 23:23 39.09688 -108.47345 5971 ft 165 kts 298°
2026-04-24 23:23 39.10304 -108.48552 5663 ft 158 kts 301°
2026-04-24 23:24 39.10927 -108.49702 5344 ft 154 kts 302°
2026-04-24 23:24 39.11526 -108.50832 5018 ft 153 kts 300°
2026-04-24 23:24 39.12126 -108.51943 4857 ft 144 kts 303°
2026-04-24 23:24 39.12636 -108.52869 4844 ft 109 kts 306°
2026-04-24 23:25 39.12977 -108.53489 4842 ft 35 kts 304°
2026-04-24 23:25 39.12986 -108.53590 4836 ft 9 kts 224°
2026-04-24 23:25 39.12926 -108.53615 4836 ft 10 kts 163°
2026-04-24 23:25 39.12873 -108.53544 4837 ft 12 kts 126°
2026-04-24 23:26 39.12826 -108.53457 4839 ft 12 kts 125°
2026-04-24 23:26 39.12775 -108.53370 4840 ft 13 kts 127°
2026-04-24 23:26 39.12716 -108.53258 4841 ft 17 kts 123°
2026-04-24 23:26 39.12645 -108.53120 4843 ft 19 kts 127°
2026-04-24 23:27 39.12567 -108.52984 4845 ft 19 kts 126°
2026-04-24 23:27 39.12494 -108.52851 4848 ft 18 kts 126°
2026-04-24 23:27 39.12422 -108.52722 4848 ft 17 kts 126°
2026-04-24 23:27 39.12354 -108.52598 4849 ft 17 kts 125°
2026-04-24 23:28 39.12289 -108.52478 4853 ft 16 kts 124°
2026-04-24 23:28 39.12227 -108.52364 4852 ft 15 kts 126°
2026-04-24 23:28 39.12168 -108.52260 4853 ft 13 kts 127°
2026-04-24 23:28 39.12127 -108.52230 4855 ft 7 kts 172°
2026-04-24 23:29 39.12087 -108.52255 4854 ft 7 kts 219°
2026-04-24 23:29 39.12083 -108.52295 4854 ft 5 kts 308°
2026-04-24 23:29 39.12086 -108.52302 4854 ft 0 kts 307°